Home   Weather   Waterford   Past weeks

Flag for Ireland Past Weather in Waterford, Ireland — Yesterday and Last 2 Weeks

Now
55 °F

Scattered clouds.


Feels Like: 51 °F
Forecast: 36 / 58 °F
Wind: 17 mph from Northwest

Location: Cork Airport

Current Time: Oct 1, 2016 at 2:54:12 PM

Latest Report: Oct 1, 2016 at 2:30 PM


Visibility: N/A

Pressure: 29.83 "Hg

Humidity: 59%

Dew Point: 41 °F

Location of WaterfordLocation

Past Weather in Waterford — Graph

°F

Waterford Temperature Yesterday

Maximum temperature yesterday: 55 °F (at 12:00 PM)
Minimum temperature yesterday: 45 °F (at 6:00 AM)
Average temperature yesterday: 50 °F

High & Low Weather Summary for the Past Weeks

 TemperatureHumidityPressure
High68 °F (Sep 27, 4:30 PM)100% (Sep 18, 7:00 AM)30.33 "Hg (Sep 18, 7:00 AM)
Low45 °F (Sep 22, 3:00 AM)46% (Sep 27, 4:30 PM)29.59 "Hg (Sep 24, 4:30 PM)
Average54 °F87%30.01 "Hg
* Reported Sep 16 2:00 PM — Oct 1 2:00 PM, Waterford, Weather by CustomWeather, © 2016

Note: Actual official high and low records may vary slightly from our data, if they occured in-between our weather recording intervals... More about our weather records

Advertising

Waterford Weather History for the Previous 24 Hours

Scroll right to see more
 ConditionsComfort  
Time TempWeatherWind HumidityBarometerVisibility
2:00 PM
Sat, Oct 1
54 °FScattered clouds.16 mph67%29.83 "HgN/A
1:30 PM54 °FScattered clouds.17 mph67%29.83 "HgN/A
1:00 PM52 °FPartly sunny.17 mph72%29.80 "HgN/A
12:30 PM52 °FPartly sunny.16 mph72%29.80 "HgN/A
12:00 PM52 °FPartly sunny.14 mph72%29.80 "HgN/A
11:30 AM52 °FPartly sunny.14 mph77%29.80 "HgN/A
11:00 AM50 °FScattered clouds.12 mph82%29.77 "HgN/A
10:30 AM50 °FPartly sunny.14 mph82%29.77 "HgN/A
10:00 AM48 °FPartly sunny.13 mph94%29.74 "HgN/A
9:30 AM48 °FBroken clouds.13 mph94%29.74 "HgN/A
9:00 AM46 °FBroken clouds.13 mph100%29.74 "HgN/A
8:30 AM46 °FBroken clouds.9 mph93%29.71 "HgN/A
8:00 AM46 °FBroken clouds.12 mph93%29.71 "HgN/A
7:30 AM46 °FPassing clouds.10 mph93%29.68 "HgN/A
7:00 AM46 °FPassing clouds.9 mph93%29.68 "HgN/A
6:30 AM46 °FPassing clouds.9 mph93%29.65 "HgN/A
6:00 AM45 °FPassing clouds.9 mph100%29.65 "HgN/A
5:30 AM45 °FPassing clouds.13 mph100%29.65 "HgN/A
5:00 AM45 °FPassing clouds.10 mph100%29.65 "HgN/A
4:30 AM45 °FPassing clouds.9 mph100%29.62 "HgN/A
4:00 AM45 °FFog.8 mph100%29.62 "Hg0 mi
3:30 AM46 °FFog.9 mph93%29.62 "Hg0 mi
3:00 AM46 °FFog.8 mph100%29.62 "Hg0 mi
2:30 AM46 °FFog.7 mph100%29.62 "Hg0 mi
2:00 AM46 °FFog.6 mph100%29.65 "Hg0 mi
1:30 AM46 °FFog.6 mph100%29.65 "Hg2 mi
1:00 AM48 °FPassing clouds.3 mph94%29.65 "HgN/A
12:30 AM48 °FPassing clouds.5 mph94%29.65 "HgN/A
12:00 AM46 °FPassing clouds.5 mph100%29.65 "HgN/A
11:30 PM
Fri, Sep 30
46 °FPassing clouds.5 mph93%29.68 "HgN/A
11:00 PM46 °FPassing clouds.5 mph93%29.68 "HgN/A
10:30 PM48 °FLight rain. Passing clouds.2 mph87%29.68 "HgN/A
10:00 PM48 °FLight rain. Passing clouds.3 mph94%29.68 "HgN/A
9:30 PM48 °FSprinkles. Partly cloudy.6 mph87%29.71 "HgN/A
9:00 PM50 °FSprinkles. Passing clouds.3 mph88%29.71 "HgN/A
8:30 PM48 °FPartly cloudy.1 mph94%29.71 "HgN/A
8:00 PM46 °FPassing clouds.3 mph93%29.71 "HgN/A
7:30 PM48 °FPartly cloudy.5 mph87%29.71 "HgN/A
7:00 PM50 °FBroken clouds.7 mph82%29.71 "HgN/A
6:30 PM50 °FBroken clouds.13 mph82%29.71 "HgN/A
6:00 PM52 °FBroken clouds.12 mph77%29.74 "HgN/A
5:30 PM52 °FBroken clouds.13 mph88%29.74 "HgN/A
5:00 PM54 °FBroken clouds.13 mph77%29.74 "HgN/A
4:30 PM52 °FPartly sunny.10 mph88%29.74 "HgN/A
4:00 PM52 °FScattered clouds.8 mph88%29.80 "HgN/A
3:30 PM54 °FSprinkles. Broken clouds.10 mph77%29.77 "HgN/A
3:00 PM54 °FSprinkles. Broken clouds.14 mph77%29.77 "HgN/A
2:30 PM55 °FSprinkles. Partly sunny.15 mph72%29.80 "HgN/A
2:00 PM55 °FSprinkles. Broken clouds.13 mph72%29.80 "HgN/A
Weather by CustomWeather, © 2016

See weather overviewHow to use our weather pages